Port Hope, MI

3:07 PM EDT on August 25, 2016 (GMT -0400)
Port Hope

Weather History for KP58 - June, 2013

Change the Weather History Date:

Saturday, June 8, 2013

  Actual Average Record
Temperature  
Mean Temperature 56 °F -  
Max Temperature 63 °F 64 °F 91 °F (2011)
Min Temperature 50 °F 50 °F 48 °F (2001)
Degree Days  
Heating Degree Days 8    
Growing Degree Days 6 (Base 50)    
Moisture  
Dew Point 50 °F    
Average Humidity 80    
Maximum Humidity 89    
Minimum Humidity 65    
Precipitation  
Precipitation 0.00 in - - ()
Sea Level Pressure  
Sea Level Pressure 29.99 in    
Wind  
Wind Speed 0 mph (ESE)    
Max Wind Speed 6 mph    
Max Gust Speed -    
Averages and records for this station are not official NWS values.
T = Trace of Precipitation, MM = Missing Value Source: NWS Daily Summary

Daily Weather History Graph

Daily Weather History Graph

Search for Another Location

Airport or City:

Trip Planner

Search our weather history database for the weather conditions in past years. The results will help you decide how hot, cold, wet, or windy it might be!

Date:

Astronomy

Jun. 08, 2013 Rise Set
Actual Time 5:48 AM EDT 9:12 PM EDT
Civil Twilight 5:12 AM EDT 9:48 PM EDT
Nautical Twilight 4:25 AM EDT 10:35 PM EDT
Astronomical Twilight 3:26 AM EDT 11:34 PM EDT
Moon 5:57 AM EDT (6/8) 9:11 PM EDT (6/8)
Length of Visible Light 16h 35m
Length of Day
15h 23m
New Moon, 0% of the Moon is Illuminated
Jun 8
New Moon
Jun 16
First Quarter
Jun 23
Full
Jun 30
Last Quarter
Jul 8
New

Hourly Weather History & Observations

Time (EDT) Temp. Dew Point Humidity Pressure Visibility Wind Dir Wind Speed Gust Speed Precip Events Conditions
12:51 AM 51.1 °F 46.9 °F 86% 29.92 in - Calm Calm - N/A   Unknown
1:51 AM 53.1 °F 48.0 °F 83% 29.92 in - Calm Calm - N/A   Unknown
2:51 AM 52.0 °F 46.9 °F 83% 29.92 in - Calm Calm - N/A   Unknown
3:51 AM 51.1 °F 48.0 °F 89% 29.91 in - Calm Calm - N/A   Unknown
4:51 AM 50.0 °F 46.9 °F 89% 29.91 in - Calm Calm - N/A   Unknown
5:51 AM 52.0 °F 48.0 °F 86% 29.93 in - Calm Calm - N/A   Unknown
6:51 AM 54.0 °F 48.9 °F 83% 29.94 in - Calm Calm - N/A   Unknown
7:51 AM 54.0 °F 50.0 °F 86% 29.95 in - Calm Calm - N/A   Unknown
8:51 AM 57.0 °F 50.0 °F 77% 29.97 in - Calm Calm - N/A   Unknown
9:51 AM 57.9 °F 50.0 °F 75% 29.98 in - Calm Calm - N/A   Unknown
10:51 AM 57.9 °F 50.0 °F 75% 29.99 in - Calm Calm - N/A   Unknown
11:51 AM 60.1 °F 51.1 °F 72% 30.00 in - Calm Calm - N/A   Unknown
12:51 PM 61.0 °F 52.0 °F 72% 30.01 in - Calm Calm - N/A   Unknown
1:51 PM 60.1 °F 51.1 °F 72% 30.00 in - Calm Calm - N/A   Unknown
2:51 PM 60.1 °F 52.0 °F 75% 29.99 in - Calm Calm - N/A   Unknown
3:51 PM 60.1 °F 53.1 °F 78% 29.99 in - NNE 3.5 mph - N/A   Unknown
4:51 PM 59.0 °F 52.0 °F 78% 30.00 in - Calm Calm - N/A   Unknown
5:51 PM 59.0 °F 52.0 °F 78% 30.02 in - East 4.6 mph - N/A   Unknown
6:51 PM 60.1 °F 53.1 °F 78% 30.03 in - ESE 5.8 mph - N/A   Unknown
7:51 PM 63.0 °F 51.1 °F 65% 30.05 in - Calm Calm - N/A   Unknown
8:51 PM 57.9 °F 51.1 °F 78% 30.05 in - Calm Calm - N/A   Unknown
9:51 PM 55.9 °F 50.0 °F 80% 30.06 in - SSW 3.5 mph - N/A   Unknown
10:51 PM 55.0 °F 51.1 °F 86% 30.07 in - Calm Calm - N/A   Unknown
11:51 PM 55.0 °F 51.1 °F 86% 30.07 in - Calm Calm - N/A   Unknown